Location: Unspecified
(0.0000°N, 0.0000°E)
Time: 06:47:02
(UTC+00:00)

Vanguard 2 Rocket - Pass Details

Date: 20 October 2025
Orbit: 553 x 3288 km, 32.9° (Epoch: 15 November)

Event Time Altitude Azimuth Distance (km) Brightness Sun altitude
Rises 08:33:13 0° 309° (NW) 6,993 11.0 41.2°
Reaches altitude 10° 08:38:23 10° 311° (NW) 5,711 10.7 42.5°
Maximum altitude 08:54:31 73° 33° (NNE) 2,042 9.6 46.4°
Drops below altitude 10° 09:03:33 10° 117° (ESE) 3,394 10.7 48.6°
Sets 09:05:51 0° 119° (ESE) 4,097 10.9 49.1°
